Regional Weather Roundup
Issued by NWS

Home | Current Version | Previous Version | Graphics & Text | Print | Product List | Glossary On
Versions: 1 2 3 4 5 6 7 8 9 10 11 12 13 14 15 16 17 18 19 20 21 22 23 24 25 26 27 28 29 30 31 32 33 34 35 36 37 38 39 40 41 42 43 44 45 46 47 48 49 50
000
ASUS43 KOAX 252202
RWRNE

WEATHER ROUNDUP FOR NEBRASKA
NATIONAL WEATHER SERVICE OMAHA NE
500 PM CDT TUE JUL 25 2017

NOTES: SATELLITE DATA IS BEING USED TO AUGMENT CLOUD COVER ABOVE
       12000 FEET.
       "FAIR" INDICATES FEW OR NO CLOUDS BELOW 12,000 FEET WITH NO
       SIGNIFICANT WEATHER AND/OR OBSTRUCTIONS TO VISIBILITY.


NEZ001>004-019>022-054>056-252300-
NEBRASKA PANHANDLE

CITY           SKY/WX    TMP DP  RH WIND       PRES   REMARKS
SCOTTSBLUFF    CLOUDY    94  51  23 NW13      29.95F HX  91
ALLIANCE       MOSUNNY   93  57  29 N14       29.93S HX  91
CHADRON        CLOUDY    91  57  31 NE22G30   29.94F
GORDON         FAIR      92  62  36 N20       29.95R HX  92
KIMBALL        CLOUDY    93  49  22 N13G20    30.04S
SIDNEY         SUNNY     95  49  20 SE23G32   29.97F HX  92
$$

NEZ057>060-069>072-079>082-252300-
SOUTHWEST NEBRASKA

CITY           SKY/WX    TMP DP  RH WIND       PRES   REMARKS
NORTH PLATTE   SUNNY    100  63  29 S14       29.89F HX 102
IMPERIAL       MOSUNNY   99  55  23 S16G25    29.90F HX  97
LEXINGTON      SUNNY     93  69  45 SE16G25   29.93F HX  98
MCCOOK         SUNNY    102  64  28 S15       29.90F HX 105
OGALLALA       MOSUNNY   99  58  25 S15       29.90F HX  98
$$

NEZ005>010-023>029-035>040-094-252300-
NORTH CENTRAL NEBRASKA

CITY           SKY/WX    TMP DP  RH WIND       PRES   REMARKS
VALENTINE      PTSUNNY  102  50  17 S13G22    29.83F HX  99
AINSWORTH      SUNNY    100  62  28 S17G26    29.86F HX 101
BROKEN BOW     MOSUNNY   96  69  41 S20G33    29.92F HX 102
O`NEILL        MOSUNNY   91  67  45 S21G28    29.89F HX  94
ORD            PTSUNNY   94  67  41 S24G31    29.91F HX  97
THEDFORD       SUNNY    102  59  24 S17G24    29.89F HX 102
$$

NEZ041-046>049-061>064-073>077-083>087-252300-
SOUTH CENTRAL NEBRASKA

CITY           SKY/WX    TMP DP  RH WIND       PRES   REMARKS
GRAND ISLAND   PTSUNNY   93  67  42 SE15G23   29.96F HX  96
AURORA         CLOUDY    93  69  45 S14G20    29.96F HX  97
HASTINGS       SUNNY     96  62  32 S12       29.97F HX  97
HEBRON         MOSUNNY   94  67  40 S10G18    29.96F HX  98
HOLDREGE       SUNNY     92  68  45 SE13      29.95F HX  96
KEARNEY        SUNNY     94  70  45 SE15      29.95F HX 100
YORK           MOSUNNY   90  72  55 S10       29.97F HX  96
$$

NEZ011>018-030>034-042>045-252300-
NORTHEAST NEBRASKA

CITY           SKY/WX    TMP DP  RH WIND       PRES   REMARKS
NORFOLK        SUNNY     98  61  29 S16G30    29.90F HX  98
ALBION         MOSUNNY   91  69  47 S10G21    29.94F HX  95
BLAIR          MOSUNNY   93  71  48 S14G22    29.96F HX 100
COLUMBUS       SUNNY     92  70  48 S18       29.94F HX  97
FREMONT        SUNNY     95  65  36 S16       29.94F HX  97
TEKAMAH        SUNNY     94  69  44 S16G24    29.92F HX  99
WAYNE          SUNNY     95  65  37 S22G28    29.90F HX  97
$$

NEZ050>053-065>068-078-088>093-252300-
SOUTHEAST NEBRASKA

CITY           SKY/WX    TMP DP  RH WIND       PRES   REMARKS
LINCOLN        SUNNY     96  66  37 S17       29.96F HX  99
OMAHA EPPLEY   MOSUNNY   96  72  45 S20G25    29.96F HX 104
BEATRICE       MOSUNNY   98  66  35 S16       29.97S HX 102
FALLS CITY     SUNNY     94  68  42 S15       29.99F HX  98
NEBRASKA CITY  SUNNY     93  72  49 S13       29.99S HX 101
PLATTSMOUTH    SUNNY     93  72  50 SE13      29.98F HX 100
$$

NEZ044-045-051>053-067-252300-
OMAHA AREA

CITY           SKY/WX    TMP DP  RH WIND       PRES   REMARKS
OMAHA EPPLEY   MOSUNNY   96  72  45 S20G25    29.96F HX 104
BLAIR          MOSUNNY   93  71  48 S14G22    29.96F HX 100
FREMONT        SUNNY     95  65  36 S16       29.94F HX  97
MILLARD        SUNNY     98  72  43 SE14G21   29.96S HX 106
OFFUTT AFB     SUNNY     95  74  49 SE15      29.97F HX 105
PLATTSMOUTH    SUNNY     93  72  50 SE13      29.98F HX 100
WAHOO          FAIR      95  65  37 S15       29.95F HX  98
$$



USA.gov is the U.S. government's official web portal to all federal, state and local government web resources and services.